Regional Weather Roundup
Issued by NWS

Home | Current Version | Previous Version | Text Only | Print | Product List | Glossary Off
Versions: 1 2 3 4 5 6 7 8 9 10 11 12 13 14 15 16 17 18 19 20 21 22 23 24 25 26 27

000
ASUS45 KBOU 241407
RWRCO

WEATHER ROUNDUP FOR COLORADO
NATIONAL WEATHER SERVICE DENVER/BOULDER CO
800 AM MDT MON APR 24 2017

NOTE: "FAIR" INDICATES FEW OR NO CLOUDS BELOW 12000 FEET WITH NO
SIGNIFICANT WEATHER AND/OR OBSTRUCTIONS TO VISIBILITY.

COZ001>005-013-030-031-241500-
...NORTHWEST COLORADO...

CITY           SKY/WX    TMP DP  RH WIND       PRES   REMARKS
CRAIG          FAIR      43  37  79 CALM      29.83F
HAYDEN         CLOUDY    39  34  81 E5        29.85R
MEEKER         FAIR      44  39  82 CALM      29.83F
MOUNT WERNER   NOT AVBL
STEAMBOAT SPGS CLOUDY    37  35  95 NE8       29.85S
WALDEN           N/A     36  30  80 CALM      29.85R
$$

COZ006>008-011-241500-
...WEST CENTRAL VALLEYS...

CITY           SKY/WX    TMP DP  RH WIND       PRES   REMARKS
GRAND JUNCTION FAIR      52  34  50 CALM      29.79R
MONTROSE       FAIR      50  30  46 SE5       29.85R
EAGLE          MOSUNNY   39  34  81 CALM      29.87R
RIFLE          FAIR      48  37  65 CALM      29.81S
DELTA          FAIR      55  31  40 NE3       29.82S
NUCLA          FAIR      46  30  53 E8        29.88S
$$

COZ017>023-064>068-241500-
...SOUTHWEST COLORADO...

CITY           SKY/WX    TMP DP  RH WIND       PRES   REMARKS
DURANGO        FAIR      42  23  46 E5        29.90R
CORTEZ         FAIR      43  29  57 CALM      29.87R
PAGOSA SPRINGS FAIR      48  19  31 CALM      29.95R
TELLURIDE      FAIR      43  22  44 CALM      29.97S
WOLF CREEK PAS FAIR      28  18  64 S13G23    30.10R WCI  18
$$

COZ009-010-012-014-032>034-037-058>063-241500-
...CENTRAL COLORADO...

CITY           SKY/WX    TMP DP  RH WIND       PRES   REMARKS
ASPEN          FAIR      41  36  82 SE5       29.86R
BUENA VISTA    FAIR      51  19  28 W6G28     29.83R
COPPER MTN     LGT SNOW  32  21  64 MISG      29.97R
BERTHOUD PASS  PTSUNNY   23  12  63 NW35G52   29.90S WCI   4
COTTONWOOD PAS FAIR      45  14  29 W16G37    29.85R
GUNNISON       FAIR      41  30  65 CALM      29.90R
KREMMLING      PTSUNNY   46  37  71 CALM      29.86S
LEADVILLE      FAIR      37  23  56 N5        29.90R
MONARCH PASS   FAIR      30  21  69 W37G43    30.09S WCI  14
SALIDA         FAIR      55  23  29 CALM      29.90S
SUNLIGHT       FAIR      30  27  86 SW10G17   29.99R WCI  21
WILKERSON PASS FAIR      32  19  59 SW14G23   29.93R WCI  22
$$

COZ069>075-241500-
...SAN LUIS VALLEY/SANGRE DE CRISTO MOUNTAINS...

CITY           SKY/WX    TMP DP  RH WIND       PRES   REMARKS
ALAMOSA        FAIR      49  20  31 S8        29.89R
LA VETA PASS   FAIR      43  18  36 S20G40    30.02S
SAGUACHE       FAIR      50  23  34 W10       29.88S
$$

COZ035-036-038>040-241500-
...NORTHERN COLORADO FRONT RANGE...

CITY           SKY/WX    TMP DP  RH WIND       PRES   REMARKS
DENVER INTL AP PTSUNNY   50  38  63 NE12      29.72R
DMNS CITY PARK   N/A     52  37  56 E12G23    29.71R
AURORA         PTSUNNY   49  37  62 E12       29.72R
FRONT RANGE AP PTSUNNY   52  39  62 NE8       29.73R
ERIE MUNI ARPT PTSUNNY   50  37  62 CALM      29.71R
BOULDER MUN AP FAIR      50  37  62 CALM      29.71R
CENTENNIAL     FAIR      53  31  42 SW6       29.71R
BROOMFIELD     PTSUNNY   50  37  62 NE9       29.72R
FORT COLLINS   FAIR      52  37  56 N13       29.69R
LONGMONT       PTSUNNY   51  40  66 CALM      29.72R
$$

COZ041-046-047-076>085-087-088-241500-
...PIKES PEAK/PALMER DIVIDE AND SOUTHERN FOOTHILLS...

CITY           SKY/WX    TMP DP  RH WIND       PRES   REMARKS
COLO. SPRINGS  FAIR      53  30  41 E7        29.72S
A. F. ACADEMY  FAIR      54  23  30 N8        29.73R
SCHRIEVER AFB  FAIR      49  31  49 NW6       29.73S
ELLICOTT       FAIR     N/A N/A N/A CALM      29.71S
FALCON         FAIR      53  22  29 NW15G22   29.76F
FORT CARSON    FAIR      57  29  34 SE12      29.71R
LIMON          FAIR      52  39  61 NW8       29.70R
MONUMENT HILL  FAIR      46  30  53 SW5       29.77S
TRINIDAD       FAIR      62  24  23 VRB6      29.74F
$$

COZ042>045-048>051-090-091-241500-
...NORTHEAST COLORADO...

CITY           SKY/WX    TMP DP  RH WIND       PRES   REMARKS
GREELEY ARPT   FAIR      55  37  50 NW14G20   29.69S
AKRON          FAIR      56  34  43 NW23G29   29.67R
BURLINGTON     NOT AVBL
WRAY           NOT AVBL
STERLING       NOT AVBL
HOLYOKE        FAIR      54  43  66 N9        29.60F
FORT MORGAN    FAIR      55  32  41 NW24G35   29.67S
$$

COZ086-089-092>099-241500-
...SOUTHEAST COLORADO...

CITY           SKY/WX    TMP DP  RH WIND       PRES   REMARKS
PUEBLO         FAIR      54  40  59 SE9       29.68R
LA JUNTA       FAIR      59  38  45 E5        29.69R
LAMAR          FAIR      62  38  40 NE10G20   29.65R
SPRINGFIELD      N/A     64  33  31 SW16G22   29.68S
$$




USA.gov is the U.S. government's official web portal to all federal, state and local government web resources and services.